Regional Weather Roundup
Issued by NWS

Home | Current Version | Previous Version | Text Only | Print | Product List | Glossary On
Versions: 1 2 3 4 5 6 7 8 9 10 11 12 13 14 15 16 17 18 19 20 21 22 23 24 25 26 27 28 29 30 31 32 33 34 35 36 37 38 39 40 41 42 43 44 45 46 47 48 49 50
000
ASUS43 KIND 231909
RWRIN

WEATHER ROUNDUP FOR INDIANA
NATIONAL WEATHER SERVICE INDIANAPOLIS IN
200 PM EST THU FEB 23 2017

NOTE: "FAIR" INDICATES FEW OR NO CLOUDS BELOW 12,000 FEET WITH NO
SIGNIFICANT WEATHER AND/OR OBSTRUCTIONS TO VISIBILITY.

* - STATION DOES NOT REPORT WEATHER SUCH AS PRECIPITATION OR FOG.

+ - STATION NOT QUALITY CONTROLLED BY THE NATIONAL WEATHER SERVICE.
    USE DATA WITH CAUTION...ESPECIALLY DEWPOINT AND RELATIVE
    HUMIDITY OBSERVATIONS.

INZ001>003-010>013-019-020-232000-
NORTHWEST INDIANA

CITY           SKY/WX    TMP DP  RH WIND       PRES   REMARKS
GARY /AIRPORT/ CLOUDY    43  37  81 NE13      29.82F HAZE
KNOX *+        CLOUDY    52  27  37 N13       29.79F
LA PORTE +     CLOUDY    46  40  81 N10       29.80F
MICHIGAN CITY+ CLOUDY    43  37  81 N8        29.82F
MONTICELLO +   CLOUDY    61  47  59 CALM      29.75S
RENSSELAER +   CLOUDY    54  45  71 N15       29.78S
VALPARAISO     CLOUDY    47  41  80 NE8       29.80F

$$

LMZ046-743>745-232000-
SOUTHERN LAKE MICHIGAN

STATION/POSITION TIME  TEMP    WIND        PRES    WAVE
                       AIR SEA DIR/SP/G            HT
                 (UTC) (F)     (DEG/KT/KT) (MB)    (FT)
BURNS HARBOR     1840   39      60/  8/ 10 1010.2F
MICHIGAN CITY    1840   37      20/  7/  8   N/A

$$

INZ004-005-014>016-021>024-232000-
NORTH CENTRAL INDIANA

CITY           SKY/WX    TMP DP  RH WIND       PRES   REMARKS
ELKHART        CLOUDY    50  41  71 NW8       29.80R
GOSHEN         PTSUNNY   57  44  62 NW10      29.77R
LOGANSPORT +   CLOUDY    61  48  63 CALM      29.75F
PERU/GRISSOM   CLOUDY    63  53  70 SW7       29.74S
ROCHESTER +    CLOUDY    63  48  59 N8        29.76F
SOUTH BEND     CLOUDY    49  41  74 NW6       29.80F
WARSAW +       CLOUDY    61  46  59 NW8       29.76R

$$

INZ006>009-017-018-025>027-232000-
NORTHEAST INDIANA

CITY           SKY/WX    TMP DP  RH WIND       PRES   REMARKS
ANGOLA *+      SUNNY     64  48  55 NW8       29.75R
AUBURN +       SUNNY     64  45  48 W5        29.75R
FORT WAYNE     CLOUDY    65  48  54 S6        29.74F
HUNTINGTON +   PTSUNNY   63  51  64 S6        29.74S
KENDALLVILLE + SUNNY     62  47  58 NW6       29.76R

$$

INZ028-029-035-036-043>045-051>053-232000-
WEST CENTRAL INDIANA

CITY           SKY/WX    TMP DP  RH WIND       PRES   REMARKS
LAFAYETTE      CLOUDY    60  53  77 W3        29.74F
TERRE HAUTE    PTSUNNY   69  54  58 SW14G20   29.71F

$$

INZ030>032-037>040-046>048-054>057-064-065-232000-
CENTRAL INDIANA

CITY           SKY/WX    TMP DP  RH WIND       PRES   REMARKS
ANDERSON       MOSUNNY   63  55  77 S6        29.75
CP ATTERBURY + CLOUDY    70  52  52 SW8       29.73F
COLUMBUS       PTSUNNY   68  57  68 S9        29.74F
FRANKFORT +    CLOUDY    64  57  80 SW7       29.76F
GREENWOOD *+   CLOUDY    67  56  67 CALM      29.73F
INDIANAPOLIS   PTSUNNY   67  55  65 SW9G18    29.72F
-EAGLE CREEK   CLOUDY    67  54  63 W7        29.72F
KOKOMO +       CLOUDY    61  54  77 SW12      29.76S
MARION +       CLOUDY    61  53  76 SW12      29.76S
MT COMFORT *+  CLOUDY    66  54  63 SW12      29.73F
SHELBYVILLE    CLOUDY    69  54  58 S9        29.73F
ZIONSVILLE +   CLOUDY    64  56  76 SW5       29.74F

$$

INZ033-034-041-042-049-050-058-059-232000-
EAST CENTRAL INDIANA

CITY           SKY/WX    TMP DP  RH WIND       PRES   REMARKS
MUNCIE         CLOUDY    64  56  75 SW5       29.75F

$$

INZ060-061-067>069-081>083-085>088-232000-
SOUTHWEST INDIANA

CITY           SKY/WX    TMP DP  RH WIND       PRES   REMARKS
EVANSVILLE     CLOUDY    71  54  54 SW16      29.73F
HUNTINGBURG *+ CLOUDY    70  57  63 S13       29.74F
WASHINGTON +   CLOUDY    67  54  62 S13       29.72F

$$

INZ062-063-066-070>080-084-089>092-232000-
SOUTH CENTRAL AND SOUTHEAST INDIANA

CITY           SKY/WX    TMP DP  RH WIND       PRES   REMARKS
BEDFORD +      CLOUDY   N/A N/A N/A S10       29.74F
BLOOMINGTON    CLOUDY    69  54  58 SW12      29.72F
MADISON *+     CLOUDY    68  54  60 S9        29.79F
NORTH VERNON + CLOUDY    68  55  64 S13       29.76F
SEYMOUR +      CLOUDY    70  55  60 S12G20    29.75F

$$





USA.gov is the U.S. government's official web portal to all federal, state and local government web resources and services.